Weather History for Superior, WI

Change the Weather History Date:

Saturday, November 5, 2011

  Actual Average Record
Temperature  
Mean Temperature 47 °F -  
Max Temperature 57 °F 42 °F 72 °F (1975)
Min Temperature 37 °F 27 °F 1 °F (1951)
Degree Days  
Heating Degree Days 18    
Moisture  
Dew Point 35 °F    
Average Humidity 62    
Maximum Humidity 75    
Minimum Humidity 48    
Precipitation  
Precipitation 0.00 in - - ()
Sea Level Pressure  
Sea Level Pressure 29.88 in    
Wind  
Wind Speed 9 mph (South)    
Max Wind Speed 17 mph    
Max Gust Speed 23 mph    
Visibility 10 miles    
Events      
Averages and records for this station are not official NWS values.
T = Trace of Precipitation, MM = Missing Value Source: NWS Daily Summary

Daily Weather History Graph

Daily Weather History Graph

Search for Another Location

Airport:

Trip Planner

Search our weather history database for the weather conditions in past years. The results will help you decide how hot, cold, wet, or windy it might be!

Date:

Astronomy

Nov. 05, 2011 Rise Set
Actual Time 7:55 AM CDT 5:47 PM CDT
Civil Twilight 7:23 AM CDT 6:19 PM CDT
Nautical Twilight 6:47 AM CDT 6:55 PM CDT
Astronomical Twilight 6:12 AM CDT 7:30 PM CDT
Moon 3:19 PM CDT (11/5) 2:50 AM CDT (11/5)
Length of Visible Light 10h 55m
Length of Day
9h 51m
Waxing Gibbous, 78% of the Moon is Illuminated
Nov 5
Waxing Gibbous
Nov 10
Full
Nov 18
Last Quarter
Nov 25
New
Dec 2
First Quarter

Hourly Weather History & Observations

Time (CDT) Temp. Windchill Dew Point Humidity Pressure Visibility Wind Dir Wind Speed Gust Speed Precip Events Conditions
12:15 AM 39.2 °F 35.9 °F 26.6 °F 61% 30.04 in 10.0 mi SSW 4.6 mph - N/A   Clear
12:35 AM 39.2 °F 34.2 °F 26.6 °F 61% 30.04 in 10.0 mi SSW 6.9 mph - N/A   Clear
12:55 AM 39.2 °F 35.9 °F 28.4 °F 65% 30.04 in 10.0 mi SW 4.6 mph - N/A   Clear
1:15 AM 39.2 °F 32.5 °F 28.4 °F 65% 30.04 in 10.0 mi SSW 10.4 mph - N/A   Clear
1:35 AM 39.2 °F 35.0 °F 28.4 °F 65% 30.03 in 10.0 mi SSW 5.8 mph - N/A   Clear
1:55 AM 39.2 °F 37.0 °F 28.4 °F 65% 30.03 in 10.0 mi SW 3.5 mph - N/A   Clear
2:35 AM 37.4 °F 34.9 °F 28.4 °F 70% 30.03 in 10.0 mi SSW 3.5 mph - N/A   Clear
2:55 AM 37.4 °F 31.4 °F 28.4 °F 70% 30.03 in 10.0 mi SSW 8.1 mph - N/A   Clear
3:15 AM 39.2 °F 33.6 °F 30.2 °F 70% 30.02 in 10.0 mi SSW 8.1 mph - N/A   Clear
3:35 AM 39.2 °F 34.2 °F 30.2 °F 70% 30.02 in 10.0 mi SSW 6.9 mph - N/A   Clear
3:55 AM 39.2 °F 34.2 °F 30.2 °F 70% 30.01 in 10.0 mi SSW 6.9 mph - N/A   Clear
4:15 AM 37.4 °F 32.1 °F 30.2 °F 75% 30.01 in 10.0 mi SSW 6.9 mph - N/A   Clear
4:55 AM 39.2 °F 33.6 °F 30.2 °F 70% 30.00 in 10.0 mi South 8.1 mph - N/A   Clear
5:15 AM 39.2 °F 33.6 °F 30.2 °F 70% 29.99 in 10.0 mi South 8.1 mph - N/A   Clear
5:35 AM 39.2 °F 33.6 °F 30.2 °F 70% 29.98 in 10.0 mi SSW 8.1 mph - N/A   Clear
5:55 AM 39.2 °F 33.6 °F 30.2 °F 70% 29.98 in 10.0 mi SSW 8.1 mph - N/A   Clear
6:55 AM 39.2 °F 32.5 °F 30.2 °F 70% 29.97 in 10.0 mi South 10.4 mph 16.1 mph N/A   Clear
7:15 AM 39.2 °F 33.6 °F 30.2 °F 70% 29.97 in 10.0 mi SSW 8.1 mph - N/A   Clear
7:35 AM 39.2 °F 33.6 °F 30.2 °F 70% 29.96 in 10.0 mi SSW 8.1 mph - N/A   Clear
7:55 AM 39.2 °F 33.6 °F 30.2 °F 70% 29.96 in 10.0 mi SSW 8.1 mph - N/A   Clear
8:35 AM 41.0 °F 34.7 °F 32.0 °F 70% 29.95 in 10.0 mi SSW 10.4 mph - N/A   Clear
8:55 AM 42.8 °F 35.8 °F 32.0 °F 66% 29.95 in 10.0 mi SSW 13.8 mph 18.4 mph N/A   Clear
9:15 AM 42.8 °F 37.0 °F 32.0 °F 66% 29.95 in 10.0 mi SSW 10.4 mph 16.1 mph N/A   Clear
9:35 AM 44.6 °F 39.2 °F 33.8 °F 66% 29.94 in 10.0 mi SSW 10.4 mph 19.6 mph N/A   Clear
9:55 AM 44.6 °F 38.4 °F 33.8 °F 66% 29.93 in 10.0 mi South 12.7 mph 17.3 mph N/A   Clear
10:15 AM 46.4 °F 41.1 °F 33.8 °F 62% 29.93 in 10.0 mi South 11.5 mph 16.1 mph N/A   Clear
10:35 AM 46.4 °F 39.8 °F 33.8 °F 62% 29.93 in 10.0 mi South 16.1 mph 20.7 mph N/A   Clear
10:55 AM 48.2 °F - 35.6 °F 62% 29.92 in 10.0 mi SSW 16.1 mph - N/A   Clear
11:15 AM 48.2 °F - 35.6 °F 62% 29.91 in 10.0 mi South 12.7 mph 20.7 mph N/A   Clear
11:35 AM 51.8 °F - 35.6 °F 54% 29.90 in 10.0 mi South 12.7 mph - N/A   Clear
11:55 AM 51.8 °F - 35.6 °F 54% 29.89 in 10.0 mi South 11.5 mph - N/A   Clear
12:15 PM 53.6 °F - 37.4 °F 54% 29.88 in 10.0 mi South 12.7 mph 18.4 mph N/A   Clear
12:35 PM 51.8 °F - 37.4 °F 58% 29.87 in 10.0 mi South 12.7 mph - N/A   Clear
12:55 PM 51.8 °F - 37.4 °F 58% 29.86 in 10.0 mi SSW 12.7 mph 20.7 mph N/A   Clear
1:15 PM 53.6 °F - 37.4 °F 54% 29.84 in 10.0 mi South 15.0 mph - N/A   Clear
1:35 PM 57.2 °F - 37.4 °F 48% 29.82 in 10.0 mi South 13.8 mph - N/A   Clear
1:55 PM 55.4 °F - 37.4 °F 51% 29.82 in 10.0 mi SSE 15.0 mph 20.7 mph N/A   Clear
2:15 PM 57.2 °F - 37.4 °F 48% 29.81 in 10.0 mi South 12.7 mph 18.4 mph N/A   Clear
2:35 PM 57.2 °F - 37.4 °F 48% 29.80 in 10.0 mi South 16.1 mph 23.0 mph N/A   Clear
2:55 PM 55.4 °F - 39.2 °F 54% 29.80 in 10.0 mi South 12.7 mph 16.1 mph N/A   Clear
3:15 PM 57.2 °F - 39.2 °F 51% 29.80 in 10.0 mi South 16.1 mph 23.0 mph N/A   Clear
3:35 PM 55.4 °F - 37.4 °F 51% 29.79 in 10.0 mi South 17.3 mph 21.9 mph N/A   Clear
3:55 PM 53.6 °F - 39.2 °F 58% 29.79 in 10.0 mi South 13.8 mph 18.4 mph N/A   Clear
4:35 PM 53.6 °F - 39.2 °F 58% 29.78 in 10.0 mi South 11.5 mph 19.6 mph N/A   Clear
4:55 PM 55.4 °F - 39.2 °F 54% 29.77 in 10.0 mi SSE 12.7 mph - N/A   Clear
5:15 PM 53.6 °F - 39.2 °F 58% 29.77 in 10.0 mi SSE 9.2 mph - N/A   Clear
5:35 PM 53.6 °F - 39.2 °F 58% 29.76 in 10.0 mi South 9.2 mph - N/A   Clear
5:55 PM 51.8 °F - 39.2 °F 62% 29.77 in 10.0 mi South 6.9 mph - N/A   Clear
6:15 PM 51.8 °F - 39.2 °F 62% 29.77 in 10.0 mi South 6.9 mph - N/A   Clear
6:35 PM 50.0 °F - 39.2 °F 66% 29.77 in 10.0 mi SSE 4.6 mph - N/A   Clear
6:55 PM 50.0 °F - 39.2 °F 66% 29.76 in 10.0 mi SE 5.8 mph - N/A   Clear
7:15 PM 48.2 °F - 37.4 °F 66% 29.75 in 10.0 mi ESE 4.6 mph - N/A   Clear
7:35 PM 48.2 °F - 39.2 °F 71% 29.75 in 10.0 mi SE 5.8 mph - N/A   Clear
8:15 PM 50.0 °F - 39.2 °F 66% 29.74 in 10.0 mi SSE 5.8 mph - N/A   Clear
8:35 PM 50.0 °F - 39.2 °F 66% 29.73 in 10.0 mi South 5.8 mph - N/A   Clear
8:55 PM 51.8 °F - 39.2 °F 62% 29.72 in 10.0 mi SSE 6.9 mph - N/A   Clear
9:15 PM 51.8 °F - 39.2 °F 62% 29.71 in 10.0 mi SSE 11.5 mph - N/A   Clear
9:35 PM 51.8 °F - 37.4 °F 58% 29.71 in 10.0 mi South 8.1 mph 19.6 mph N/A   Clear
9:55 PM 51.8 °F - 37.4 °F 58% 29.71 in 10.0 mi South 9.2 mph - N/A   Clear
10:15 PM 51.8 °F - 37.4 °F 58% 29.70 in 10.0 mi South 10.4 mph 19.6 mph N/A   Clear
10:35 PM 51.8 °F - 37.4 °F 58% 29.70 in 10.0 mi South 10.4 mph - N/A   Clear
10:55 PM 51.8 °F - 39.2 °F 62% 29.70 in 10.0 mi South 8.1 mph - N/A   Clear
11:15 PM 51.8 °F - 39.2 °F 62% 29.70 in 10.0 mi South 15.0 mph 21.9 mph N/A   Clear
11:35 PM 51.8 °F - 39.2 °F 62% 29.71 in 10.0 mi South 11.5 mph 17.3 mph N/A   Clear
11:55 PM 51.8 °F - 39.2 °F 62% 29.71 in 10.0 mi South 12.7 mph 21.9 mph N/A   Clear